Location: Unspecified
(0.0000°N, 0.0000°E)
Time: 17:52:55
(UTC+00:00)

STARLINK 1017 - Pass Details

Date: 17 January 2020
Orbit: 347 x 353 km, 53.0° (Epoch: 18 January)

Event Time Altitude Azimuth Distance (km) Brightness Sun altitude
Rises 05:24:13 0° 212° (SSW) 2,140 6.5 -10.7°
Reaches altitude 10° 05:26:13 10° 210° (SSW) 1,298 5.4 -10.2°
Maximum altitude 05:29:06 76° 125° (SE) 357 2.8 -9.5°
Drops below altitude 10° 05:31:58 10° 38° (NE) 1,293 5.7 -8.8°
Sets 05:33:58 0° 36° (NE) 2,131 6.8 -8.4°
